Amazonas 5

operational
NORAD ID: 42934 Int'l Des: 2017-053 Owner: HISPM/HISP Country: BR
HEOCIRCULARGSO

Über Amazonas 5

Beschreibung wird geladen...

Live-Position

3D-Globus wird geladen...

Nächste Überflüge

Höhenverlauf

Altitude vs Time

uPlot chart will show altitude changes over time

Zweizeiliger Elementsatz

1 42934U 17053A 26071.02175786 -.00000282 00000-0 00000+0 0 9992
2 42934 0.0444 330.6771 0005423 8.5106 137.3011 1.00269101 31074
Epoch: 12. März 2026 • Age: 48 hours

Aktueller Status

Höhe 35804.2 km
Geschwindigkeit 3.07 km/s
Subsatellitenpunkt -0.02°S, 60.98°W
Startdatum 11. Sept. 2017
Alter 8.5 years
Typ other

Technische Details

Klassifizierung Payload
Masse 5900.00 kg
Trockenmasse 3500.00 kg
Gesamtmasse 5900.00 kg
Länge 8.10 m
Durchmesser 2.90 m
Spannweite 26.00 m
Form Box + 2 pan
Hersteller SSL
Bus-Typ SSL-1300
Phasenstatus In Orbit
Besitzer/Staat HISPM/HISP/BR

Große Konstellationen

Loading constellations...